Location: Austin
(30.3000°N, 97.7500°W)
Time: 03:19:30
(UTC-05:00)

SWARM A - Pass Details

Date: 01 October 2024
Orbit: 458 x 463 km, 87.3° (Epoch: 06 October)

Event Time Altitude Azimuth Distance (km) Brightness Sun altitude
Rises 19:31:19 0° 170° (S) 2,470 8.0 -4.2°
Reaches altitude 10° 19:33:24 10° 165° (SSE) 1,599 7.0 -4.7°
Maximum altitude 19:36:47 52° 88° (E) 577 4.5 -5.4°
Drops below altitude 10° 19:40:10 10° 11° (N) 1,606 7.0 -6.1°
Sets 19:42:16 0° 7° (N) 2,483 8.0 -6.6°
